Piney Island, NC

7:49 AM EST on December 12, 2017 (GMT -0500)
Piney Island

Weather History for KNBT - May, 2014

Change the Weather History Date:

Monday, May 12, 2014

  Actual Average (KMRH) Record (KMRH)
Temperature  
Mean Temperature 78 °F -  
Max Temperature 87 °F 76 °F 85 °F (1948)
Min Temperature 71 °F 58 °F 43 °F (1969)
Cooling Degree Days 14    
Growing Degree Days 28 (Base 50)    
Moisture  
Dew Point 71 °F    
Average Humidity 86    
Maximum Humidity 97    
Minimum Humidity 57    
Precipitation  
Precipitation 0.00 in - - ()
Sea Level Pressure  
Sea Level Pressure 30.16 in    
Wind  
Wind Speed 5 mph (SSW)    
Max Wind Speed 13 mph    
Max Gust Speed -    
Visibility 6 miles    
Events Fog    
Averages and records for this station are not official NWS values.
T = Trace of Precipitation, MM = Missing Value Source: NWS Daily Summary

Daily Weather History Graph

Daily Weather History Graph

Search for Another Location

Airport or City:

Trip Planner

Search our weather history database for the weather conditions in past years. The results will help you decide how hot, cold, wet, or windy it might be!

Date:

Astronomy

May. 12, 2014 Rise Set
Actual Time 6:04 AM EDT 8:00 PM EDT
Civil Twilight 5:36 AM EDT 8:28 PM EDT
Nautical Twilight 5:03 AM EDT 9:02 PM EDT
Astronomical Twilight 4:26 AM EDT 9:38 PM EDT
Moon 6:00 PM EDT 4:36 AM EDT
Length of Visible Light 14h 51m
Length of Day
13h 55m
Waxing Gibbous, 95% of the Moon is Illuminated
May 12
Waxing Gibbous
May 14
Full
May 21
Last Quarter
May 28
New
Jun 5
First Quarter

Hourly Weather History & Observations

Time (EDT) Temp. Heat Index Dew Point Humidity Pressure Visibility Wind Dir Wind Speed Gust Speed Precip Events Conditions
12:18 AM 73.0 °F - 71.1 °F 93% 30.15 in 5.0 mi SW 4.6 mph - N/A   Mostly Cloudy
12:56 AM 73.0 °F - 72.0 °F 96% 30.16 in 6.0 mi WSW 4.6 mph - N/A   Overcast
1:39 AM 73.0 °F - 71.1 °F 93% 30.14 in 6.0 mi SW 4.6 mph - N/A   Mostly Cloudy
1:47 AM 73.0 °F - 71.1 °F 93% 30.14 in 6.0 mi SW 3.5 mph - N/A   Scattered Clouds
1:56 AM 73.0 °F - 71.1 °F 93% 30.15 in 6.0 mi SSW 4.6 mph - N/A   Scattered Clouds
2:11 AM 73.0 °F - 71.1 °F 93% 30.14 in 5.0 mi SW 5.8 mph - N/A   Mostly Cloudy
2:56 AM 73.0 °F - 72.0 °F 96% 30.14 in 4.0 mi SSW 6.9 mph - N/A   Overcast
3:23 AM 72.0 °F - 71.1 °F 97% 30.13 in 5.0 mi SW 3.5 mph - N/A   Scattered Clouds
3:56 AM 72.0 °F - 70.0 °F 93% 30.15 in 5.0 mi WSW 5.8 mph - N/A   Mostly Cloudy
4:56 AM 71.1 °F - 70.0 °F 96% 30.15 in 3.0 mi WSW 4.6 mph - N/A   Overcast
5:05 AM 71.1 °F - 70.0 °F 96% 30.14 in 2.5 mi West 3.5 mph - N/A   Overcast
5:26 AM 71.1 °F - 70.0 °F 96% 30.14 in 3.0 mi SW 4.6 mph - N/A   Overcast
5:42 AM 71.1 °F - 70.0 °F 96% 30.14 in 1.8 mi WSW 5.8 mph - N/A   Overcast
5:56 AM 71.1 °F - 70.0 °F 96% 30.16 in 1.8 mi WSW 3.5 mph - N/A   Overcast
6:03 AM 71.1 °F - 70.0 °F 96% 30.15 in 2.0 mi Calm Calm - N/A   Overcast
6:10 AM 71.1 °F - 70.0 °F 96% 30.15 in 0.8 mi Calm Calm - N/A   Overcast
6:56 AM 71.1 °F - 70.0 °F 96% 30.18 in 0.2 mi Calm Calm - N/A Fog Fog
7:56 AM 72.0 °F - 71.1 °F 97% 30.19 in 0.2 mi SSW 3.5 mph - N/A Fog Fog
8:40 AM 73.0 °F - 72.0 °F 96% 30.18 in 1.5 mi SSW 4.6 mph - N/A   Overcast
8:49 AM 73.0 °F - 72.0 °F 96% 30.19 in 3.0 mi Calm Calm - N/A   Overcast
8:56 AM 72.0 °F - 71.1 °F 97% 30.20 in 4.0 mi WSW 4.6 mph - N/A   Overcast
9:33 AM 77.0 °F - 71.1 °F 82% 30.19 in 8.0 mi Calm Calm - N/A   Scattered Clouds
10:56 AM 80.1 °F 83.2 °F 70.0 °F 71% 30.22 in 10.0 mi Variable 5.8 mph - N/A   Clear
11:56 AM 82.0 °F 86.7 °F 72.0 °F 71% 30.21 in 10.0 mi ENE 8.1 mph - N/A   Clear
12:56 PM 82.0 °F 86.7 °F 72.0 °F 71% 30.20 in 10.0 mi ESE 9.2 mph - N/A   Clear
1:56 PM 82.9 °F 86.5 °F 69.1 °F 63% 30.20 in 10.0 mi ESE 10.4 mph - N/A   Clear
2:56 PM 84.9 °F 88.8 °F 69.1 °F 59% 30.19 in 10.0 mi North - - N/A   Clear
3:56 PM 86.0 °F 90.1 °F 69.1 °F 57% 30.16 in 10.0 mi ESE 10.4 mph - N/A   Clear
4:56 PM 84.0 °F 87.8 °F 69.1 °F 61% 30.14 in 10.0 mi East 6.9 mph - N/A   Scattered Clouds
5:56 PM 86.0 °F 90.1 °F 69.1 °F 57% 30.14 in 10.0 mi Variable 5.8 mph - N/A   Partly Cloudy
6:56 PM 82.9 °F 87.5 °F 71.1 °F 67% 30.15 in 10.0 mi South 12.7 mph - N/A   Clear
7:56 PM 78.1 °F - 70.0 °F 76% 30.16 in 10.0 mi SSW 5.8 mph - N/A   Clear
8:56 PM 75.0 °F - 71.1 °F 87% 30.17 in 9.0 mi South 5.8 mph - N/A   Clear
9:56 PM 73.9 °F - 71.1 °F 91% 30.17 in 8.0 mi South 5.8 mph - N/A   Clear
10:56 PM 73.0 °F - 71.1 °F 93% 30.18 in 7.0 mi SSW 5.8 mph - N/A   Clear
11:56 PM 73.0 °F - 71.1 °F 93% 30.17 in 6.0 mi SSW 5.8 mph - N/A   Clear